Regional Weather Roundup
Issued by NWS Northern Indiana

Home | Current Version | Previous Version | Text Only | Print | Product List | Glossary Off
Versions: 1 2 3 4 5 6 7 8 9 10 11 12 13 14 15 16 17 18 19 20 21 22 23 24 25 26 27 28 29 30 31 32 33 34 35 36 37 38 39 40 41 42 43 44 45 46 47 48 49 50

000
ASUS43 KIWX 290010
RWRIWX

KIWX WEATHER ROUNDUP
NATIONAL WEATHER SERVICE NORTHERN INDIANA
700 PM EST WED JAN 28 2015

NOTE: "FAIR" INDICATES FEW OR NO CLOUDS BELOW 12,000 FEET WITH NO
SIGNIFICANT WEATHER AND/OR OBSTRUCTIONS TO VISIBILITY.

* THESE STATIONS ARE NOT UNDER NWS QUALITY CONTROL. THEY ALSO MAY NOT
  REPORT WEATHER SUCH AS PRECIPITATION OR FOG.

INZ001>027-290100-
NORTHERN INDIANA

CITY           SKY/WX    TMP DP  RH WIND       PRES   REMARKS
GARY*          CLOUDY    34  16  47 SE17G29   30.04F WCI  23
VALPARAISO     MOCLDY    30  20  66 SE14G21   30.06F WCI  19
6HR MIN TEMP:  30; 6HR MAX TEMP:  32;

MICHIGAN CITY* MOCLDY    30  14  51 SE10G18   30.06F WCI  21
LAPORTE*       PTCLDY    31  21  66 SE12      30.08F WCI  22
6HR MIN TEMP:  31; 6HR MAX TEMP:  33;

KNOX*          MOCLDY    30   7  37 SE16      30.08F WCI  19
6HR MIN TEMP:  -9; 6HR MAX TEMP:  81;

SOUTH BEND     FAIR      28  17  63 SE15      30.10F WCI  16
6HR MIN TEMP:  28; 6HR MAX TEMP:  31;

ELKHART*       MOCLDY    27  12  54 SE10      30.12  WCI  17
GOSHEN         MOCLDY    26  16  65 SE14      30.13F WCI  14
6HR MIN TEMP:  26; 6HR MAX TEMP:  30;

MONTICELLO*    MOCLDY    32  21  64 SE8       30.09F WCI  25
6HR MIN TEMP:  30; 6HR MAX TEMP:  34;

LOGANSPORT*    MOCLDY    30  23  74 SE9       30.13F WCI  22
ROCHESTER*     MOCLDY    32  21  64 SE10      30.12F WCI  24
WARSAW*        PTCLDY    27  18  69 SE10      30.13F WCI  17
ANGOLA*        CLEAR     21  14  73 SE8       30.16F WCI  12
FORT WAYNE     CLOUDY    25  16  68 SE9       30.19F WCI  15
6HR MIN TEMP:  24; 6HR MAX TEMP:  27;

HUNTINGTON*    MOCLDY    26  14  60 SE8       30.17S WCI  18
6HR MIN TEMP:  25; 6HR MAX TEMP:  29;

PERU/GRISSOM   MOCLDY    29  21  73 SE10      30.12F WCI  20
6HR MIN TEMP:  28; 6HR MAX TEMP:  32;

MARION*        MOCLDY    29  20  67 SE10      30.15F WCI  20
6HR MIN TEMP:  -2; 6HR MAX TEMP:  46;


$$
INZ028>050-290100-
CENTRAL INDIANA

CITY           SKY/WX    TMP DP  RH WIND       PRES   REMARKS
LAFAYETTE      MOCLDY    33  20  58 SE12      30.09F WCI  24
6HR MIN TEMP:  32; 6HR MAX TEMP:  37;

KOKOMO*        MOCLDY    30  21  69 SE13      30.13F WCI  20
6HR MIN TEMP:  28; 6HR MAX TEMP:  32;

MUNCIE*        PTCLDY    30  20  66 SE9       30.16F WCI  22
6HR MIN TEMP:  28; 6HR MAX TEMP:  31;

INDIANAPOLIS   MOCLDY    30  17  58 SE13      30.15S WCI  20
6HR MIN TEMP:  29; 6HR MAX TEMP:  34;


$$
MIZ043>046-050>051-056>058-064>065-071>073-077>080-290100-
SOUTHWEST LOWER MICHIGAN

CITY           SKY/WX    TMP DP  RH WIND       PRES   REMARKS
BATTLE CREEK   MOCLDY    27   6  41 SE12      30.13F WCI  17
6HR MIN TEMP:  27; 6HR MAX TEMP:  31;

BENTON HARBOR  MOCLDY    27  11  51 SE13      30.08F WCI  16
6HR MIN TEMP:  27; 6HR MAX TEMP:  32;

COLDWATER*     PTCLDY    24  11  58 SE8       30.15F WCI  15
6HR MIN TEMP:  24; 6HR MAX TEMP:  27;

HILLSDALE*     MOCLDY    22  13  65 SE3       30.16F
HOLLAND        MOCLDY    30   9  41 SE16      30.09F WCI  19
6HR MIN TEMP:  30; 6HR MAX TEMP:  33;

GRAND RAPIDS   CLOUDY    28   9  44 SE12      30.12F WCI  18
6HR MIN TEMP:  28; 6HR MAX TEMP:  31;

KALAMAZOO      MOCLDY    27   8  44 SE8       30.13F WCI  19
6HR MIN TEMP:  27; 6HR MAX TEMP:  30;

STURGIS*       PTCLDY    25  14  63 SE12      30.13F WCI  14
THREE RIVERS*  FAIR      26  12  55 SE12      30.14F WCI  16

$$
OHZ001>008-015>018-024>025-290100-
NORTHWEST OHIO

CITY           SKY/WX    TMP DP  RH WIND       PRES   REMARKS
WAUSEON*       FAIR      21  16  79 SE8       30.23F WCI  12
DEFIANCE       PTCLDY    24  14  65 SE5       30.23F WCI  18
6HR MIN TEMP:  23; 6HR MAX TEMP:  27;

FINDLAY        MOCLDY    23  13  65 S9        30.24S WCI  13
6HR MIN TEMP:  22; 6HR MAX TEMP:  25;

TOLEDO EXPRESS CLOUDY    22  14  71 SE3       30.25F
6HR MIN TEMP:  22; 6HR MAX TEMP:  26;

TOLEDO METCALF CLOUDY    23  13  65 S6        30.27S WCI  16
6HR MIN TEMP:  23; 6HR MAX TEMP:  26;

LIMA           MOCLDY    24  14  65 SE13      30.22F WCI  12
6HR MIN TEMP:  23; 6HR MAX TEMP:  27;


$$
AND FOR LAKE MICHIGAN COASTAL AND OPEN LAKE BUOY OBSERVATIONS

STATION/POSITION TEMP    WIND        PRES    VSBY  WAVE
                 AIR SEA DIR/SP/G                  HT/PER
                 (F)     (DEG/KT/KT) (MB)    (MI)  (FT/S)
CALUMET HARBOR    32     140/ 10/ 15   N/A
MICHIGAN CITY     30     120/ 16/ 23   N/A
SAINT JOSEPH      29     140/  4/  8 1019.3S

$$
&&


USA.gov is the U.S. government's official web portal to all federal, state and local government web resources and services.